DW0398 Weather Reports


time (UTC)temp
C
wind
direction
speed
KPH
gust
KPH
rain 1hr
cm
rain 24hr
cm
rain mn
cm
humidity
%
barometer
mb
20260507231804 12 333 3.2 16.1 0.00 0.00 0.00 49 1011.8
20260507230805 12 333 4.8 14.5 0.00 0.00 0.00 49 1011.7
20260507230304 12 314 3.2 14.5 0.00 0.00 0.00 49 1011.6
20260507225804 13 274 4.8 19.3 0.00 0.00 0.00 49 1011.6
20260507225306 13 298 3.2 12.9 0.00 0.00 0.00 50 1011.6
20260507224805 13 299 9.7 19.3 0.00 0.00 0.00 47 1011.4
20260507224304 13 288 4.8 16.1 0.00 0.00 0.00 48 1011.4
20260507223804 13 303 3.2 16.1 0.00 0.00 0.00 48 1011.4
20260507223304 13 283 11.3 22.5 0.00 0.00 0.00 46 1011.3
20260507222805 14 290 3.2 14.5 0.00 0.00 0.00 50 1011.3
20260507222306 13 301 3.2 12.9 0.00 0.00 0.00 49 1011.3
20260507221804 13 283 3.2 9.7 0.00 0.00 0.00 48 1011.2
20260507221304 13 314 3.2 11.3 0.00 0.00 0.00 48 1011.2
20260507220804 13 273 4.8 14.5 0.00 0.00 0.00 46 1011.2
20260507220304 13 276 4.8 14.5 0.00 0.00 0.00 48 1011.0
20260507215804 13 290 4.8 16.1 0.00 0.00 0.00 48 1010.9
20260507215306 13 291 4.8 19.3 0.00 0.00 0.00 48 1010.8
20260507214804 13 330 6.4 12.9 0.00 0.00 0.00 49 1010.8
20260507214305 13 289 4.8 8.0 0.00 0.00 0.00 49 1010.8
20260507213304 13 289 3.2 16.1 0.00 0.00 0.00 47 1010.5
20260507212804 14 326 4.8 19.3 0.00 0.00 0.00 46 1010.6
20260507211804 15 310 8.0 19.3 0.00 0.00 0.00 46 1010.8
20260507211304 15 300 6.4 16.1 0.00 0.00 0.00 45 1010.7
20260507210804 15 292 9.7 16.1 0.00 0.00 0.00 46 1010.5
20260507210304 14 292 8.0 20.9 0.00 0.00 0.00 45 1010.4
20260507205804 13 293 8.0 14.5 0.00 0.00 0.00 46 1010.4
20260507205306 13 282 8.0 22.5 0.00 0.00 0.00 47 1010.4
20260507204804 14 277 8.0 16.1 0.00 0.00 0.00 47 1010.6
20260507204304 14 271 9.7 19.3 0.00 0.00 0.00 47 1010.5
20260507203304 15 279 6.4 16.1 0.00 0.00 0.00 47 1010.6
20260507202804 15 286 4.8 16.1 0.00 0.00 0.00 50 1010.5
20260507201804 14 304 4.8 19.3 0.00 0.00 0.00 48 1010.6
20260507200803 14 281 9.7 19.3 0.00 0.00 0.00 46 1010.7
20260507195306 15 269 9.7 19.3 0.00 0.00 0.00 46 1010.8
20260507193804 15 300 4.8 16.1 0.00 0.00 0.00 44 1010.9
20260507193304 14 296 8.0 20.9 0.00 0.00 0.00 50 1011.1
20260507192804 14 292 8.0 16.1 0.00 0.00 0.00 46 1011.0
20260507192307 14 277 8.0 19.3 0.00 0.00 0.00 46 1011.1
20260507191805 15 262 14.5 22.5 0.00 0.00 0.00 46 1011.0
20260507190804 15 283 9.7 20.9 0.00 0.00 0.00 46 1011.0
20260507190305 15 280 8.0 19.3 0.00 0.00 0.00 48 1011.0
20260507185804 15 285 11.3 19.3 0.00 0.00 0.00 46 1011.1
20260507185306 15 338 8.0 19.3 0.00 0.00 0.00 48 1011.2
20260507184805 15 307 6.4 19.3 0.00 0.00 0.00 48 1011.2
20260507183804 14 312 8.0 19.3 0.00 0.00 0.00 52 1011.4
20260507182805 13 354 3.2 16.1 0.00 0.00 0.00 50 1011.4
20260507182307 14 293 4.8 16.1 0.00 0.00 0.00 52 1011.5
20260507181804 14 234 8.0 16.1 0.00 0.00 0.00 51 1011.4
20260507181304 13 311 4.8 11.3 0.00 0.00 0.00 52 1011.5
20260507180805 13 291 3.2 12.9 0.00 0.00 0.00 55 1011.5
20260507180304 13 322 6.4 12.9 0.00 0.00 0.00 53 1011.5
20260507175805 13 310 9.7 16.1 0.00 0.00 0.00 50 1011.6
20260507175306 13 342 4.8 12.9 0.00 0.00 0.00 51 1011.6
20260507174804 14 318 8.0 19.3 0.00 0.00 0.00 52 1011.6
20260507174304 13 244 6.4 14.5 0.00 0.00 0.00 54 1011.6
20260507173804 13 277 9.7 12.9 0.00 0.00 0.00 53 1011.7
20260507173304 13 315 3.2 14.5 0.00 0.00 0.00 53 1011.7
20260507172804 13 223 4.8 8.0 0.00 0.00 0.00 55 1011.8
20260507171804 12 289 4.8 12.9 0.00 0.00 0.00 57 1012.0
20260507171304 12 283 3.2 8.0 0.00 0.00 0.00 55 1012.0
20260507170804 12 354 4.8 16.1 0.00 0.00 0.00 56 1012.1
20260507170304 13 275 3.2 11.3 0.00 0.00 0.00 56 1012.1
20260507165804 13 254 9.7 14.5 0.00 0.00 0.00 55 1012.1
20260507165306 13 359 1.6 8.0 0.00 0.00 0.00 55 1012.1
20260507164805 13 289 1.6 12.9 0.00 0.00 0.00 55 1012.2
20260507164304 13 260 8.0 19.3 0.00 0.00 0.00 55 1012.1
20260507163805 13 328 11.3 20.9 0.00 0.00 0.00 56 1012.2
20260507163304 13 267 11.3 20.9 0.00 0.00 0.00 55 1012.2
20260507162806 13 262 4.8 11.3 0.00 0.00 0.00 53 1012.3
20260507162307 13 286 3.2 19.3 0.00 0.00 0.00 54 1012.2
20260507161304 13 282 8.0 14.5 0.00 0.00 0.00 54 1012.4
20260507160805 13 255 8.0 12.9 0.00 0.00 0.00 56 1012.4
20260507160304 13 263 8.0 19.3 0.00 0.00 0.00 56 1012.5
20260507155804 12 275 1.6 8.0 0.00 0.00 0.00 58 1012.5
20260507155306 12 86 1.6 11.3 0.00 0.00 0.00 56 1012.6
20260507154804 12 340 1.6 12.9 0.00 0.00 0.00 57 1012.7
20260507154304 12 324 0.0 4.8 0.00 0.00 0.00 58 1012.8
20260507153804 12 300 1.6 14.5 0.00 0.00 0.00 56 1012.8
20260507153304 12 319 1.6 8.0 0.00 0.00 0.00 56 1012.8
20260507152804 12 253 6.4 16.1 0.00 0.00 0.00 53 1013.0
20260507152306 12 263 6.4 19.3 0.00 0.00 0.00 59 1013.0
20260507151804 12 313 4.8 11.3 0.00 0.00 0.00 58 1013.0
20260507151304 12 319 4.8 14.5 0.00 0.00 0.00 58 1013.1
20260507150804 12 291 4.8 11.3 0.00 0.00 0.00 59 1013.3
20260507145804 12 223 4.8 12.9 0.00 0.00 0.00 57 1013.3
20260507145306 12 269 1.6 8.0 0.00 0.00 0.00 64 1013.4
20260507144804 12 297 1.6 4.8 0.00 0.00 0.00 64 1013.5
20260507144304 11 262 4.8 11.3 0.00 0.00 0.00 63 1013.6
20260507143804 11 253 8.0 16.1 0.00 0.00 0.00 64 1013.7
20260507143304 12 261 8.0 14.5 0.00 0.00 0.00 63 1013.7
20260507142804 11 265 6.4 14.5 0.00 0.00 0.00 63 1013.8
20260507142306 11 288 8.0 14.5 0.00 0.00 0.00 62 1013.9
20260507141804 11 246 4.8 12.9 0.00 0.00 0.00 63 1013.9
20260507141304 11 246 6.4 16.1 0.00 0.00 0.00 64 1014.0
20260507140804 11 264 4.8 19.3 0.00 0.00 0.00 67 1014.1
20260507135805 11 279 4.8 11.3 0.00 0.00 0.00 65 1014.1
20260507135306 11 274 4.8 12.9 0.00 0.00 0.00 68 1014.2
20260507134804 11 246 4.8 11.3 0.00 0.00 0.00 69 1014.2
20260507134304 11 281 4.8 12.9 0.00 0.00 0.00 69 1014.2
20260507133306 10 280 3.2 8.0 0.00 0.03 0.00 71 1014.2
20260507132805 10 271 4.8 9.7 0.00 0.03 0.00 72 1014.2
20260507132307 10 261 3.2 11.3 0.00 0.03 0.00 74 1014.2
20260507131304 10 232 3.2 9.7 0.00 0.05 0.00 75 1014.3
20260507130304 9 228 3.2 4.8 0.00 0.05 0.00 77 1014.3
20260507125306 8 258 0.0 11.3 0.00 0.08 0.00 78 1014.3
20260507124804 8 112 1.6 8.0 0.00 0.08 0.00 78 1014.3
20260507124304 8 220 1.6 4.8 0.00 0.08 0.00 79 1014.3
20260507123804 8 201 3.2 4.8 0.00 0.08 0.00 80 1014.3
20260507123304 8 207 3.2 8.0 0.00 0.08 0.00 81 1014.3
20260507122804 8 245 3.2 8.0 0.00 0.10 0.00 82 1014.3
20260507122307 8 213 0.0 3.2 0.00 0.10 0.00 85 1014.2
20260507121804 7 225 0.0 1.6 0.00 0.10 0.00 87 1014.4
20260507121305 7 139 1.6 3.2 0.00 0.10 0.00 86 1014.3
20260507120305 7 64 0.0 1.6 0.00 0.13 0.00 90 1014.2
20260507115804 7 25 0.0 0.0 0.00 0.13 0.00 91 1014.3
20260507115307 6 25 0.0 0.0 0.00 0.13 0.00 92 1014.3
20260507114805 6 22 0.0 0.0 0.00 0.13 0.00 93 1014.3
20260507114304 6 22 0.0 0.0 0.00 0.13 0.00 93 1014.4
20260507112307 5 348 0.0 0.0 0.00 0.13 0.00 95 1014.3
20260507111804 5 348 0.0 0.0 0.00 0.13 0.00 96 1014.2
20260507111305 5 348 0.0 0.0 0.00 0.13 0.00 96 1014.2
20260507110804 4 348 0.0 0.0 0.00 0.13 0.00 96 1014.2
20260507110304 3 348 0.0 0.0 0.00 0.13 0.00 97 1014.2
20260507105804 3 348 0.0 0.0 0.00 0.15 0.00 97 1014.0
20260507104804 2 348 0.0 0.0 0.00 0.15 0.00 96 1013.9
20260507104304 1 348 0.0 0.0 0.00 0.18 0.00 96 1014.0
20260507103804 1 348 0.0 0.0 0.00 0.20 0.00 96 1014.0
20260507103304 0 348 0.0 0.0 0.00 0.25 0.00 96 1013.9
20260507102805 0 348 0.0 0.0 0.00 0.28 0.00 95 1013.8
20260507101804 0 348 0.0 0.0 0.00 0.33 0.00 95 1013.8
20260507101304 0 348 0.0 0.0 0.00 0.36 0.00 95 1013.8
20260507100804 1 348 0.0 0.0 0.00 0.38 0.00 95 1013.7
20260507100304 1 348 0.0 0.0 0.00 0.38 0.00 95 1013.7
20260507095804 1 348 0.0 0.0 0.00 0.38 0.00 95 1013.7
20260507095306 1 348 0.0 0.0 0.00 0.41 0.00 95 1013.7
20260507094804 1 348 0.0 0.0 0.00 0.41 0.00 95 1013.7
20260507094304 1 348 0.0 0.0 0.00 0.41 0.00 95 1013.7
20260507093804 1 348 0.0 0.0 0.00 0.41 0.00 95 1013.7
20260507093304 1 348 0.0 0.0 0.00 0.43 0.00 95 1013.7
20260507092804 1 348 0.0 0.0 0.00 0.46 0.00 95 1013.8
20260507092307 1 348 0.0 0.0 0.00 0.46 0.00 95 1013.8
20260507091804 1 348 0.0 0.0 0.00 0.48 0.00 95 1013.8
20260507091304 1 348 0.0 0.0 0.00 0.48 0.00 94 1013.9
20260507090804 1 348 0.0 0.0 0.00 0.51 0.00 94 1013.8
20260507090304 1 348 0.0 0.0 0.00 0.51 0.00 94 1013.7
20260507085804 1 348 0.0 0.0 0.00 0.53 0.00 94 1013.7
20260507085306 1 348 0.0 0.0 0.00 0.56 0.00 94 1013.7
20260507084804 1 348 0.0 0.0 0.00 0.58 0.00 94 1013.8
20260507084304 1 348 0.0 0.0 0.00 0.64 0.00 94 1013.8
20260507083805 2 348 0.0 0.0 0.00 0.64 0.00 94 1013.8
20260507083304 2 348 0.0 0.0 0.00 0.66 0.00 94 1013.9
20260507082804 2 348 0.0 0.0 0.00 0.69 0.00 94 1013.9
20260507082306 2 348 0.0 0.0 0.00 0.71 0.00 94 1013.8
20260507081804 2 348 0.0 0.0 0.00 0.74 0.00 93 1013.7
20260507081305 2 348 0.0 0.0 0.00 0.76 0.00 93 1013.8
20260507080804 2 348 0.0 0.0 0.00 0.76 0.00 93 1013.8
20260507075804 2 348 0.0 0.0 0.00 0.76 0.00 93 1013.9
20260507075307 2 348 0.0 0.0 0.00 0.76 0.00 92 1013.9
20260507074804 2 348 0.0 0.0 0.00 0.76 0.00 92 1013.8
20260507074304 2 348 0.0 0.0 0.00 0.76 0.00 92 1013.8
20260507073804 2 348 0.0 0.0 0.00 0.76 0.00 92 1013.8
20260507073305 3 348 0.0 0.0 0.00 0.76 0.00 91 1013.7
20260507072804 3 348 0.0 0.0 0.00 0.76 0.00 91 1013.7
20260507071304 3 348 0.0 0.0 0.00 0.76 0.00 90 1013.8
20260507070804 3 348 0.0 0.0 0.00 0.76 0.00 89 1013.9
20260507070304 3 348 0.0 0.0 0.00 0.76 0.00 89 1013.8
20260507065804 3 348 0.0 0.0 0.00 0.76 0.00 89 1013.7
20260507065306 4 348 0.0 0.0 0.00 0.76 0.00 89 1013.8
20260507064805 4 348 0.0 0.0 0.00 0.79 0.00 88 1013.8
20260507064305 4 348 0.0 0.0 0.00 0.79 0.00 88 1013.7
20260507063804 4 348 0.0 0.0 0.00 0.79 0.00 87 1013.7
20260507063304 4 348 0.0 0.0 0.00 0.79 0.00 87 1013.8
20260507062306 5 348 0.0 0.0 0.00 0.81 0.00 86 1013.8
20260507061804 5 348 0.0 0.0 0.00 0.84 0.00 86 1014.0
20260507061304 5 348 0.0 0.0 0.00 0.84 0.00 85 1014.1
20260507060805 5 348 0.0 0.0 0.00 0.86 0.00 85 1014.1
20260507060304 6 348 0.0 0.0 0.00 0.86 0.00 85 1014.0
20260507055804 6 348 0.0 1.6 0.00 0.89 0.00 86 1014.0
20260507054805 6 348 0.0 0.0 0.00 0.89 0.00 85 1013.9
20260507054305 6 348 0.0 0.0 0.00 0.91 0.00 85 1014.1
20260507053805 6 348 0.0 0.0 0.00 0.94 0.00 84 1014.2
20260507053304 6 348 0.0 0.0 0.00 0.94 0.00 83 1014.2
20260507052804 6 348 0.0 0.0 0.00 0.94 0.00 83 1014.4
20260507052306 6 348 0.0 0.0 0.00 0.97 0.00 83 1014.5
20260507051306 7 348 0.0 0.0 0.00 0.97 0.00 81 1014.6
20260507050805 7 348 0.0 0.0 0.00 0.99 0.00 78 1014.5
20260507050304 7 348 0.0 0.0 0.00 1.02 0.00 79 1014.5
20260507045804 7 348 0.0 0.0 0.00 1.02 0.00 79 1014.6
20260507045306 7 348 0.0 0.0 0.00 1.04 0.00 78 1014.6
20260507044305 7 348 0.0 1.6 0.00 1.07 0.00 78 1014.6
20260507043804 7 348 0.0 0.0 0.00 1.07 0.00 78 1014.6
20260507043304 7 348 0.0 0.0 0.00 1.07 0.00 77 1014.6
20260507042804 7 348 0.0 0.0 0.00 1.07 0.00 76 1014.5
20260507041804 7 329 0.0 1.6 0.00 1.07 0.00 77 1014.5
20260507041304 7 9 0.0 0.0 0.00 1.07 0.00 77 1014.5
20260507040804 7 9 0.0 1.6 0.00 1.07 0.00 77 1014.5
20260507040304 7 3 0.0 1.6 0.00 1.07 0.00 77 1014.4
20260507035804 7 1 0.0 1.6 0.00 1.07 1.07 76 1014.5
20260507035306 7 1 0.0 3.2 0.00 1.07 1.07 75 1014.4
20260507034304 7 353 0.0 1.6 0.00 1.07 1.07 74 1014.1
20260507033804 7 352 1.6 3.2 0.00 1.07 1.07 74 1014.0
20260507033304 7 3 1.6 3.2 0.00 1.07 1.07 74 1014.0
20260507032808 7 357 0.0 4.8 0.00 1.07 1.07 74 1014.0
20260507032306 7 354 0.0 4.8 0.00 1.07 1.07 73 1014.0
20260507031804 7 359 0.0 3.2 0.00 1.07 1.07 73 1014.0
20260507031304 7 8 0.0 1.6 0.00 1.07 1.07 73 1014.0
20260507030804 7 8 0.0 3.2 0.00 1.07 1.07 73 1014.1
20260507030304 7 326 0.0 4.8 0.00 1.07 1.07 72 1014.1
20260507024804 7 7 0.0 1.6 0.00 1.07 1.07 73 1013.9
20260507024304 7 7 0.0 0.0 0.00 1.07 1.07 73 1013.9
20260507023805 7 7 0.0 0.0 0.00 1.07 1.07 73 1013.8
20260507023304 7 7 0.0 0.0 0.00 1.07 1.07 72 1013.8
20260507022804 7 7 0.0 0.0 0.00 1.07 1.07 72 1013.7
20260507022306 7 7 0.0 0.0 0.00 1.07 1.07 73 1013.8
20260507021804 8 7 0.0 0.0 0.00 1.07 1.07 72 1013.7
20260507021304 8 7 0.0 1.6 0.00 1.07 1.07 72 1013.6
20260507020804 8 7 0.0 0.0 0.00 1.07 1.07 71 1013.5
20260507015806 8 7 0.0 1.6 0.00 1.07 1.07 70 1013.3
20260507015306 8 6 0.0 1.6 0.00 1.07 1.07 70 1013.4
20260507014305 8 92 0.0 1.6 0.00 1.07 1.07 69 1013.1
20260507013804 8 92 0.0 1.6 0.00 1.07 1.07 69 1013.0
20260507013304 8 103 0.0 0.0 0.00 1.07 1.07 69 1012.8
20260507012307 8 88 0.0 1.6 0.00 1.07 1.07 68 1012.7
20260507011804 8 68 0.0 1.6 0.00 1.07 1.07 67 1012.9
20260507010804 9 346 0.0 3.2 0.00 1.07 1.07 66 1013.0
20260507010304 9 22 0.0 3.2 0.00 1.07 1.07 66 1013.0
20260507005804 9 59 1.6 8.0 0.00 1.07 1.07 66 1013.0
20260507004804 9 15 1.6 8.0 0.00 1.07 1.07 66 1013.3
20260507004304 9 344 3.2 9.7 0.00 1.07 1.07 65 1013.2
20260507003804 10 353 0.0 4.8 0.00 1.07 1.07 66 1013.1
20260507003304 10 39 0.0 4.8 0.00 1.07 1.07 66 1013.1
20260507002804 10 6 3.2 9.7 0.00 1.07 1.07 64 1013.2
20260507002306 10 19 0.0 4.8 0.00 1.07 1.07 66 1012.9
20260507001804 10 2 1.6 4.8 0.00 1.07 1.07 65 1012.9
20260507001304 10 359 1.6 4.8 0.00 1.07 1.07 65 1013.0
20260507000805 10 340 0.0 4.8 0.00 1.07 1.07 65 1012.8
20260507000306 10 5 1.6 4.8 0.00 1.07 1.07 65 1012.9
20260506235804 10 339 0.0 1.6 0.00 1.07 1.07 65 1013.1
20260506235306 10 332 1.6 4.8 0.00 1.07 1.07 65 1013.1
20260506234805 10 10 1.6 4.8 0.00 1.07 1.07 65 1012.8
20260506234304 10 342 1.6 4.8 0.00 1.07 1.07 64 1012.9
20260506233804 10 344 1.6 8.0 0.00 1.07 1.07 64 1012.7
20260506233304 10 1 1.6 4.8 0.00 1.07 1.07 64 1012.6
20260506232804 10 11 1.6 3.2 0.00 1.07 1.07 65 1012.5
20260506232306 10 341 1.6 4.8 0.00 1.07 1.07 64 1012.5